Location: Cahas Mountain Overlook
(37.0833°N, 80.1000°W)
Time: 01:52:04
(UTC-05:00)

A-11 Canister half - Pass Details

Date: 04 December 2023
Orbit: 1512 x 1687 km, 47.2° (Epoch: 01 March)

Event Time Altitude Azimuth Distance (km) Brightness Sun altitude
Exits shadow 05:26:26 27° 310° (NW) 2,811 9.9 -21.7°
Maximum altitude 05:32:31 61° 21° (NNE) 1,864 9.4 -20.5°
Drops below altitude 10° 05:42:34 10° 101° (E) 3,948 12.4 -18.5°
Sets 05:45:49 0° 105° (ESE) 4,934 13.4 -17.9°
